Location: Plainartige
(45.6866°N, 1.7993°E)
Time: 17:25:22
(UTC+00:00)

DIWATA 2B (PO-101) - Pass Details

Date: 09 July 2022
Orbit: 583 x 599 km, 98.0° (Epoch: 19 August)

Event Time Altitude Azimuth Distance (km) Brightness Sun altitude
Exits shadow 02:46:27 17° 237° (WSW) 1,558 ? -11.9°
Maximum altitude 02:48:07 20° 267° (W) 1,389 ? -11.8°
Drops below altitude 10° 02:51:17 10° 316° (NW) 1,947 ? -11.4°
Sets 02:53:57 0° 333° (NNW) 2,854 ? -11.1°
